Wind_Speed
24 23 23 24 24 24 23 23 23 22 22 22 21 20 20 20 20 20 20 20 20 20 20 19 19 19 19 20 21 20 20 20 19 19 19 20 20 20 21 21 21 22 23 23
26 25 25 25 25 25 24 24 24 24 23 21 21 21 21 21 20 20 20 20 20 21 21 21 21 21 21 21 21 21 21 21 21 21 20 21 21 22 22 22 22 23 24 24
27 27 27 28 25 25 25 25 25 25 24 23 22 22 22 22 21 21 21 21 21 22 22 22 22 22 22 22 22 23 23 23 22 22 21 21 22 22 23 23 24 24 24 24
28 28 29 28 26 25 25 25 25 25 25 24 23 22 22 22 22 21 21 22 22 22 23 23 23 23 23 23 23 24 23 23 23 22 22 22 22 23 23 24 24 25 25 25
29 29 29 29 27 26 26 26 26 26 25 25 24 23 23 23 23 23 23 23 23 24 24 24 24 23 23 24 24 24 24 24 23 23 23 23 24 24 24 24 25 25 26 26
30 29 29 28 28 26 26 27 26 26 26 25 25 25 24 24 24 24 24 24 25 25 24 24 24 24 24 24 24 24 25 24 24 24 25 25 25 25 26 26 25 26 26 26
29 30 30 29 28 27 27 27 26 26 26 26 26 26 25 24 25 25 25 25 25 25 25 25 25 25 25 25 24 24 24 24 25 25 25 25 26 26 26 26 26 26 26 26
29 30 30 30 29 28 28 27 27 27 26 26 26 26 25 25 25 25 25 25 26 26 25 25 25 25 26 25 24 24 24 25 25 25 25 25 26 27 26 27 27 26 26 27
30 31 31 31 30 29 28 27 27 27 27 27 26 26 26 26 26 26 26 26 26 26 26 27 27 26 26 25 24 25 25 25 25 25 24 25 25 26 26 26 26 26 26 26
30 31 31 30 30 30 29 28 28 28 28 27 27 27 27 27 26 26 26 26 27 26 27 27 27 26 26 25 24 24 24 24 25 25 25 26 26 26 26 26 27 27 27 27
30 31 30 30 30 30 29 29 30 29 29 29 29 28 28 27 27 27 27 27 28 28 27 26 26 26 25 25 23 23 23 23 24 24 24 25 25 25 26 26 26 26 26 27
29 30 30 30 30 30 29 29 29 29 29 29 29 29 28 27 27 27 27 27 27 27 27 26 26 26 25 25 24 23 23 23 24 24 25 24 25 25 26 26 25 26 26 26
30 30 30 30 30 29 29 29 28 28 28 28 28 28 27 27 27 27 27 27 27 27 26 26 26 26 25 25 25 24 25 25 26 25 25 25 26 26 26 25 24 24 25 24
30 29 29 29 28 28 28 27 26 26 26 26 27 27 27 26 26 26 26 26 26 26 26 26 25 26 26 26 26 26 26 26 26 26 26 25 25 25 25 24 24 23 23 22
28 28 28 28 27 27 26 26 25 25 26 26 26 26 25 25 25 25 25 24 24 25 25 25 25 26 27 27 27 27 27 26 27 27 26 25 25 25 24 24 25 24 22 22
26 27 27 27 26 25 25 24 24 25 25 25 25 25 25 25 24 24 24 24 24 24 24 24 24 25 26 27 27 28 27 26 26 27 27 26 25 24 24 24 24 24 23 22
24 25 25 25 25 25 24 24 24 24 24 24 23 24 24 24 23 23 23 23 24 23 23 23 23 24 25 25 26 27 27 26 27 27 27 27 26 25 24 23 23 23 22 21
22 22 23 23 24 24 24 24 24 24 24 23 23 23 22 22 22 22 22 22 22 22 22 22 22 22 22 23 24 24 24 25 27 27 26 26 26 25 24 23 23 22 21 21
21 22 22 22 23 23 23 24 24 24 24 24 23 23 22 21 21 21 21 22 21 21 21 22 22 23 22 23 23 24 25 25 25 25 26 26 25 24 24 24 23 22 21 20
21 22 22 22 22 23 23 23 23 23 23 23 22 21 21 21 21 21 22 22 21 21 21 22 22 22 22 22 23 23 24 24 24 24 24 24 24 24 23 23 23 22 20 19
21 21 21 21 21 22 22 22 23 23 23 22 22 22 21 21 20 20 21 21 21 22 22 22 22 22 22 22 23 24 24 25 25 25 25 24 24 24 23 23 23 22 21 20
20 21 21 21 20 21 21 22 22 22 22 22 22 21 21 21 21 20 20 20 21 21 21 22 21 22 22 22 22 22 23 23 24 24 25 24 23 22 22 23 23 22 22 21
18 19 19 19 20 20 20 20 21 21 21 20 20 20 21 20 20 20 20 20 20 21 21 21 21 21 22 22 21 21 21 22 23 23 24 23 22 22 22 23 23 22 22 21
16 17 19 19 19 19 19 19 19 20 20 19 19 19 20 20 20 20 20 20 20 21 21 21 21 21 21 21 21 21 22 22 22 22 22 22 22 22 22 21 21 21 22 22
16 16 16 16 17 18 19 19 19 19 19 19 19 19 19 19 20 20 20 20 20 20 20 20 21 21 21 20 20 21 22 22 21 21 21 21 22 22 22 21 21 22 22 22
15 14 14 14 15 16 17 18 18 19 19 19 19 19 19 18 18 19 19 19 18 19 19 19 19 19 20 20 20 21 21 21 21 21 21 21 21 21 22 21 22 22 22 22
13 13 13 14 14 14 14 15 16 16 16 16 16 17 17 18 18 18 17 17 17 18 18 18 18 19 19 19 20 19 20 20 19 20 20 20 21 21 21 21 21 21 22 22
Wind_Direction
250 252 255 258 261 261 260 260 263 269 273 274 277 279 280 280 282 284 284 287 288 289 291 291 289 288 288 287 287 287 284 282 283 281 280 281 282 283 282 281 281 280 280 279
252 252 255 257 258 260 260 260 263 266 271 275 276 278 279 280 282 283 283 285 287 288 290 288 286 285 287 287 287 287 284 281 281 282 281 280 281 283 283 282 282 282 282 279
255 255 257 257 258 259 260 261 264 267 272 274 275 278 278 279 280 283 283 284 286 287 288 287 285 284 284 283 285 286 284 281 279 281 280 279 279 281 282 282 282 281 282 281
255 256 257 258 259 260 262 263 265 268 270 272 274 277 280 281 281 282 283 284 284 286 287 287 286 284 284 283 284 284 283 282 280 279 280 279 280 281 282 282 282 282 282 281
254 257 259 259 259 261 263 265 267 269 269 270 273 275 278 280 282 283 284 283 283 284 285 286 286 285 285 283 284 283 283 282 280 279 277 277 279 281 282 283 282 283 283 281
252 254 257 259 261 262 264 264 266 269 271 272 272 274 277 281 283 284 284 284 283 283 284 285 286 286 284 282 283 283 282 280 279 277 277 277 279 279 280 281 282 283 282 280
251 253 255 257 260 261 261 263 266 268 271 272 272 273 277 279 280 282 283 281 281 282 283 284 285 284 283 283 284 283 282 281 279 278 278 278 278 279 280 281 280 281 280 278
252 252 253 256 258 258 261 264 266 268 270 272 273 274 275 276 277 279 279 279 280 280 281 283 284 284 285 284 283 282 282 281 279 279 279 279 279 279 280 280 281 281 281 278
253 254 255 256 257 258 261 263 266 269 271 271 272 272 273 274 276 276 276 277 278 280 282 284 285 284 284 284 283 281 280 281 280 279 281 282 282 281 280 280 280 282 283 281
253 253 255 256 256 258 260 263 265 268 270 271 272 271 271 272 274 276 274 275 277 278 281 284 284 282 282 281 280 281 282 281 280 279 280 282 281 281 282 282 281 282 283 283
252 254 255 256 257 258 260 262 265 267 268 270 272 271 272 273 273 273 274 274 277 279 281 281 281 280 280 280 279 280 282 283 282 282 283 283 282 284 286 285 285 284 282 281
253 253 253 254 256 258 259 262 264 267 268 270 271 272 273 273 273 272 272 274 275 278 279 279 279 277 277 278 278 280 281 282 283 283 283 284 284 287 288 286 285 284 283 281
252 252 253 254 255 257 259 261 263 266 268 269 271 273 274 273 274 274 273 273 274 276 277 276 275 276 277 278 279 280 281 282 282 282 282 282 284 286 287 288 287 285 285 284
252 252 253 253 255 257 259 260 263 265 266 268 271 273 274 274 275 275 276 275 273 274 275 273 273 274 276 279 279 281 281 281 281 280 279 280 281 284 286 285 287 287 286 284
252 252 253 254 255 256 258 259 261 263 265 267 270 271 272 273 274 275 276 278 276 276 277 275 275 276 277 279 278 280 280 279 279 278 277 278 282 284 287 289 288 288 288 285
251 251 251 252 253 255 256 257 259 262 264 267 269 270 270 271 274 275 277 276 276 276 277 278 280 280 280 280 278 278 278 277 277 278 280 281 282 284 286 288 289 288 287 285
250 249 249 249 249 251 252 254 257 261 264 267 269 270 269 271 273 275 276 275 274 275 276 278 280 281 282 282 280 279 279 279 279 280 281 280 281 282 284 287 287 287 286 284
250 250 249 249 249 250 250 252 256 260 263 265 267 268 269 272 272 273 275 274 273 274 275 278 279 281 282 281 280 279 280 281 281 280 281 281 280 280 282 285 287 285 284 284
250 250 249 250 250 251 252 254 257 260 262 264 267 268 269 271 272 272 273 273 273 275 276 278 281 282 283 285 285 284 283 283 284 284 281 279 280 280 281 282 283 283 285 284
250 249 249 250 251 252 254 255 257 261 263 264 266 268 270 270 271 271 271 271 273 275 277 278 281 282 283 286 287 286 285 285 284 284 284 283 281 280 281 283 282 282 283 285
251 251 250 250 250 253 255 257 259 261 262 263 266 267 268 268 269 271 271 272 273 276 278 279 280 281 283 285 286 287 286 285 284 284 286 286 284 282 283 284 283 282 282 284
255 254 253 252 255 255 255 257 259 262 264 265 266 267 268 268 270 271 272 273 275 277 279 280 281 281 282 285 289 291 290 287 285 285 287 288 287 285 285 285 284 283 282 282
256 255 255 257 259 257 256 258 260 261 263 264 264 265 268 268 268 269 272 275 276 279 281 282 283 284 286 287 291 295 296 293 290 289 287 287 289 289 288 287 285 283 281 281
261 257 255 256 257 256 255 256 259 260 262 263 263 265 266 267 268 270 272 275 277 280 282 283 284 287 289 291 293 295 297 296 292 289 288 287 288 290 289 287 285 283 283 282
265 263 260 257 258 259 258 258 258 260 263 264 264 265 268 268 270 272 273 275 276 278 280 282 283 286 289 292 293 294 294 294 293 293 292 289 288 289 288 286 286 285 285 285
266 264 264 264 263 261 259 259 259 262 264 264 264 265 267 268 268 269 271 272 274 278 281 283 285 286 288 292 293 293 293 294 292 293 295 293 289 289 289 287 287 286 286 284
266 265 266 266 265 263 262 261 262 264 265 264 263 264 265 267 267 269 271 273 275 278 281 285 286 287 290 292 292 291 292 293 294 295 295 294 292 291 289 288 288 288 287 286
Height
5870 5872 5872 5873 5873 5874 5875 5876 5877 5878 5877 5876 5875 5874 5873 5872 5871 5870 5868 5866 5865 5863 5861 5859 5858 5856 5855 5853 5852 5850 5849 5848 5847 5845 5844 5843 5842 5840 5839 5838 5837 5836 5835 5834
5863 5864 5865 5866 5867 5868 5868 5869 5870 5870 5870 5870 5869 5868 5867 5866 5865 5864 5862 5861 5859 5857 5855 5854 5852 5850 5849 5847 5845 5844 5842 5841 5840 5839 5838 5836 5835 5834 5833 5831 5830 5829 5828 5827
5856 5857 5857 5858 5860 5861 5862 5862 5863 5863 5864 5863 5863 5862 5861 5860 5858 5857 5856 5854 5853 5851 5849 5848 5846 5844 5843 5841 5839 5837 5836 5834 5833 5832 5831 5830 5829 5827 5826 5825 5823 5822 5821 5819
5848 5849 5849 5853 5853 5854 5854 5855 5856 5856 5856 5856 5856 5855 5854 5853 5852 5851 5849 5848 5846 5845 5843 5841 5839 5838 5836 5834 5833 5831 5829 5828 5827 5826 5824 5823 5822 5820 5819 5817 5816 5814 5813 5812
5840 5841 5842 5844 5845 5846 5847 5847 5848 5848 5849 5849 5849 5848 5847 5846 5845 5844 5843 5841 5840 5838 5836 5834 5833 5831 5829 5827 5825 5823 5822 5821 5820 5818 5817 5816 5815 5813 5811 5810 5808 5807 5805 5804
5831 5833 5834 5837 5837 5839 5840 5839 5841 5841 5841 5841 5841 5841 5841 5839 5838 5837 5835 5834 5832 5830 5828 5827 5826 5824 5822 5820 5818 5816 5815 5813 5812 5811 5810 5809 5807 5805 5804 5802 5801 5799 5798 5796
5822 5823 5826 5828 5829 5831 5833 5833 5833 5833 5833 5833 5833 5833 5833 5832 5831 5829 5828 5826 5825 5823 5822 5820 5818 5816 5814 5812 5811 5809 5807 5806 5805 5803 5802 5801 5799 5798 5796 5795 5793 5791 5790 5789
5814 5816 5819 5819 5821 5822 5823 5824 5824 5825 5825 5825 5825 5825 5824 5824 5823 5822 5820 5819 5817 5816 5814 5812 5810 5808 5806 5805 5803 5801 5800 5799 5797 5796 5794 5793 5792 5790 5788 5787 5785 5783 5782 5781
5806 5809 5809 5810 5812 5813 5815 5816 5816 5817 5817 5817 5816 5816 5816 5815 5815 5813 5812 5811 5809 5808 5806 5804 5802 5800 5799 5797 5796 5794 5793 5791 5790 5789 5787 5785 5784 5782 5780 5779 5777 5775 5774 5772
5796 5798 5800 5801 5803 5804 5806 5807 5808 5808 5808 5809 5808 5808 5807 5807 5806 5805 5804 5803 5801 5799 5798 5796 5794 5793 5792 5790 5788 5787 5785 5784 5782 5781 5780 5778 5776 5775 5773 5771 5769 5767 5766 5764
5787 5788 5790 5792 5794 5795 5797 5798 5799 5799 5800 5800 5799 5799 5798 5797 5797 5796 5795 5794 5793 5791 5789 5788 5786 5785 5784 5783 5781 5780 5778 5777 5775 5774 5772 5771 5769 5767 5765 5763 5761 5759 5758 5756
5778 5779 5781 5783 5785 5787 5788 5789 5790 5791 5791 5791 5790 5790 5789 5788 5788 5788 5787 5786 5784 5783 5781 5780 5778 5777 5776 5775 5774 5773 5771 5770 5768 5766 5765 5763 5761 5760 5758 5756 5754 5752 5750 5749
5768 5770 5772 5774 5776 5777 5779 5780 5781 5781 5782 5782 5781 5781 5781 5780 5780 5779 5778 5777 5776 5775 5774 5772 5771 5769 5768 5767 5766 5765 5764 5762 5760 5759 5757 5756 5754 5752 5750 5749 5746 5744 5743 5741
5759 5761 5763 5765 5767 5769 5770 5771 5772 5773 5773 5773 5773 5773 5772 5772 5771 5770 5769 5768 5768 5767 5766 5764 5763 5762 5760 5759 5758 5757 5756 5754 5753 5751 5750 5748 5747 5745 5743 5742 5739 5738 5736 5735
5749 5752 5754 5756 5758 5760 5761 5763 5764 5765 5765 5765 5765 5765 5764 5764 5763 5762 5761 5760 5760 5759 5758 5757 5755 5754 5752 5751 5750 5749 5747 5746 5745 5743 5742 5741 5740 5738 5736 5734 5733 5731 5729 5728
5740 5743 5745 5747 5750 5751 5753 5754 5756 5756 5757 5757 5757 5757 5757 5756 5755 5754 5754 5753 5752 5751 5750 5749 5748 5746 5744 5743 5741 5740 5739 5738 5736 5735 5734 5733 5732 5731 5729 5727 5726 5724 5723 5722
5733 5735 5737 5739 5741 5743 5745 5747 5748 5749 5749 5749 5749 5749 5749 5748 5748 5747 5746 5745 5745 5744 5743 5742 5741 5739 5737 5735 5734 5732 5731 5730 5729 5728 5727 5726 5724 5723 5722 5720 5719 5717 5716 5715
5726 5728 5730 5732 5734 5736 5737 5739 5740 5741 5741 5741 5741 5741 5741 5741 5740 5740 5739 5738 5737 5737 5736 5735 5733 5732 5730 5728 5727 5725 5724 5723 5721 5720 5719 5718 5717 5715 5714 5713 5712 5710 5709 5708
5720 5721 5723 5725 5727 5728 5730 5731 5732 5733 5733 5734 5734 5734 5734 5734 5733 5733 5732 5732 5731 5730 5729 5728 5727 5725 5724 5722 5720 5719 5717 5716 5714 5713 5711 5710 5709 5708 5707 5706 5705 5704 5702 5701
5714 5715 5716 5718 5719 5721 5722 5723 5724 5725 5725 5726 5726 5726 5726 5727 5726 5726 5725 5725 5724 5723 5722 5721 5720 5719 5717 5716 5714 5712 5711 5709 5707 5706 5704 5703 5702 5701 5700 5699 5698 5697 5696 5695
5707 5708 5709 5711 5712 5713 5715 5716 5716 5717 5718 5718 5719 5719 5719 5719 5719 5719 5718 5718 5717 5716 5715 5714 5713 5712 5711 5709 5707 5705 5704 5702 5701 5699 5697 5696 5695 5693 5692 5691 5691 5689 5689 5688
5701 5702 5703 5704 5705 5706 5707 5708 5709 5709 5710 5711 5711 5711 5711 5712 5712 5712 5711 5711 5710 5709 5709 5708 5706 5705 5704 5702 5701 5699 5697 5695 5693 5692 5690 5689 5687 5686 5685 5684 5683 5682 5682 5681
5695 5696 5697 5698 5698 5699 5699 5700 5701 5702 5703 5703 5704 5704 5704 5705 5705 5705 5705 5704 5703 5703 5702 5701 5700 5698 5697 5696 5694 5692 5691 5689 5687 5685 5683 5682 5681 5679 5678 5677 5676 5675 5675 5674
5689 5690 5690 5691 5692 5692 5693 5694 5695 5696 5696 5697 5697 5697 5698 5698 5698 5698 5697 5697 5697 5696 5695 5694 5693 5691 5690 5689 5688 5686 5684 5682 5680 5678 5677 5675 5674 5673 5671 5670 5669 5668 5667 5666
5684 5684 5684 5685 5686 5686 5687 5688 5689 5690 5690 5691 5691 5691 5691 5691 5691 5691 5691 5690 5690 5689 5689 5687 5686 5685 5684 5683 5681 5680 5678 5676 5674 5672 5670 5669 5667 5666 5664 5663 5662 5661 5660 5659
5679 5679 5679 5680 5680 5681 5681 5682 5683 5684 5684 5684 5685 5685 5684 5685 5685 5685 5684 5684 5684 5683 5682 5681 5680 5679 5678 5676 5675 5673 5671 5670 5668 5666 5664 5662 5661 5659 5658 5656 5655 5653 5652 5651
5675 5675 5675 5675 5675 5676 5676 5677 5677 5678 5678 5678 5679 5679 5679 5679 5679 5679 5678 5678 5678 5677 5676 5675 5674 5672 5671 5670 5668 5666 5665 5664 5662 5660 5658 5656 5654 5653 5651 5649 5648 5646 5645 5644